Flag for France Weather past 2 weeks in Bastia, Corsica, France

Now
50 °F

Passing clouds.


Feels Like: 47 °F
Forecast: 46 / 51 °F
Wind: 8 mph from North

Location: Bastia Airport

Current Time: Mar 5, 2015 at 8:48:29 PM

Latest Report: Mar 5, 2015 at 8:30 PM


Visibility: N/A

Pressure: 30.09 "Hg

Humidity: 40%

Dew point: 27 °F

Location of BastiaLocation

Historic Weather in Bastia — Graph

°F

Bastia temperature yesterday

Maximum temperature yesterday: 59 °F (at 9:30 AM)
Minimum temperature yesterday: 45 °F (at 6:30 AM)
Average temperature yesterday: 52 °F

Past Weeks' High & Low Weather Summary

 TemperatureHumidityPressure
High77 °F (Mar 2, 2:09 PM)100% (Feb 21, 9:00 PM)30.51 "Hg (Feb 21, 9:00 PM)
Low37 °F (Feb 19, 3:30 AM)8% (Mar 3, 12:00 AM)29.39 "Hg (Feb 22, 3:30 AM)
Average51 °F71%29.92 "Hg
* Reported Feb 18 7:00 PM — Mar 5 7:30 PM, Bastia, Weather by CustomWeather, © 2015

Note: Actual official high and low records may vary slightly from our data, if they occured in-between our weather recording intervals... More about our weather records

Advertising

Bastia weather history for previous 24 hours

 ConditionsComfort  
Time TempWeatherWind HumidityBarometerVisibility
7:30 PM
Thu, Mar 5
50 °FPassing clouds.9 mph40%30.09 "HgN/A
7:00 PM50 °FPassing clouds.9 mph37%30.07 "HgN/A
6:30 PM50 °FPassing clouds.8 mph40%30.07 "HgN/A
6:00 PM50 °FScattered clouds.9 mph40%30.07 "HgN/A
5:30 PM54 °FScattered clouds.14 mph35%30.07 "HgN/A
5:00 PM52 °FScattered clouds.12 mph44%30.07 "HgN/A
4:30 PM54 °FScattered clouds.18 mph35%30.07 "HgN/A
4:00 PM54 °FScattered clouds.21 mph38%30.04 "HgN/A
3:30 PM54 °FBroken clouds.22 mph35%30.04 "HgN/A
3:00 PM54 °FBroken clouds.22 mph41%30.04 "HgN/A
2:30 PM54 °FBroken clouds.22 mph38%30.01 "HgN/A
2:00 PM54 °FBroken clouds.22 mph38%30.01 "HgN/A
1:30 PM52 °FBroken clouds.26 mph41%30.01 "HgN/A
1:00 PM52 °FBroken clouds.28 mph41%30.01 "HgN/A
12:30 PM52 °FBroken clouds.31 mph41%30.01 "HgN/A
12:17 PM52 °FBroken clouds.35 mph41%30.01 "HgN/A
11:30 AM52 °FBroken clouds.37 mph35%30.01 "HgN/A
11:00 AM52 °FBroken clouds.32 mph41%30.01 "HgN/A
10:00 AM52 °FBroken clouds.39 mph41%29.98 "HgN/A
9:39 AM50 °FBroken clouds.37 mph43%29.98 "HgN/A
9:00 AM50 °FBroken clouds.33 mph47%29.98 "HgN/A
8:00 AM48 °FLight rain. Broken clouds.35 mph54%29.95 "HgN/A
7:30 AM48 °FLight rain. Broken clouds.37 mph58%29.92 "HgN/A
7:00 AM48 °FLight rain. Broken clouds.39 mph62%29.92 "HgN/A
6:30 AM46 °FLight rain. Passing clouds.41 mph71%29.92 "Hg4 mi
6:00 AM45 °FLight rain. Passing clouds.39 mph81%29.89 "Hg3 mi
5:30 AM45 °FLight rain. Passing clouds.36 mph81%29.89 "Hg3 mi
4:30 AM45 °FLight rain. Passing clouds.44 mph87%29.86 "Hg3 mi
4:00 AM45 °FRain. Passing clouds.40 mph87%29.83 "Hg3 mi
3:00 AM46 °FRain. Fog.37 mph87%29.77 "Hg2 mi
2:30 AM48 °FRain. Fog.30 mph94%29.77 "Hg3 mi
2:00 AM48 °FRain. Passing clouds.24 mph94%29.77 "Hg4 mi
1:30 AM48 °FRain. Mostly cloudy.7 mph94%29.80 "Hg4 mi
1:00 AM46 °FRain. Fog.3 mph100%29.80 "Hg2 mi
12:30 AM48 °FRain. Fog.No wind94%29.80 "Hg2 mi
12:00 AM48 °FRain. Partly cloudy.No wind87%29.83 "Hg4 mi
11:30 PM
Wed, Mar 4
48 °FRain. Partly cloudy.2 mph94%29.83 "Hg4 mi
10:00 PM50 °FLight rain. Partly cloudy.3 mph94%29.86 "Hg5 mi
9:30 PM52 °FLight rain. Partly cloudy.2 mph88%29.86 "HgN/A
9:00 PM52 °FLight rain. Partly cloudy.5 mph82%29.89 "HgN/A
8:30 PM52 °FLight rain. Partly cloudy.7 mph82%29.89 "HgN/A
8:00 PM52 °FLight rain. Partly cloudy.7 mph94%29.92 "HgN/A
Weather by CustomWeather, © 2015

See weather overviewHow to use our weather pages